Location: Fort Wayne
(41.1310°N, 85.1290°W)
Time: 04:52:23
(UTC-04:00)

SR - Visible Passes

Search period start: 01 November 2014 00:00
Search period end: 10 November 2014 23:00
Orbit: 576 x 888 km, 66.7° (Epoch: 31 October)

Date Brightness Start Highest point End Pass type
(mag) Time Alt. Az. Time Alt. Az. Time Alt. Az.
01 Nov ? 20:51:10 10° N 20:52:35 15° N 20:52:35 15° N visible
02 Nov ? 19:03:58 10° NNE 19:05:38 12° NNE 19:05:38 12° NNE visible
02 Nov ? 20:44:11 10° NNW 20:45:08 15° NNW 20:45:08 15° NNW visible
03 Nov ? 19:56:04 10° NNW 19:58:14 21° N 19:58:14 21° N visible
04 Nov ? 19:08:14 10° N 19:11:23 19° NNE 19:11:23 19° NNE visible
04 Nov ? 20:49:38 10° NW 20:50:54 17° NW 20:50:54 17° NW visible
05 Nov ? 18:21:02 10° NNE 18:23:03 12° NE 18:24:37 11° NE visible
05 Nov ? 20:01:15 10° NNW 20:04:09 31° NNW 20:04:09 31° NNW visible
06 Nov ? 19:13:08 10° NNW 19:17:29 32° NE 19:17:29 32° NE visible
06 Nov ? 20:55:27 10° NW 20:57:00 18° WNW 20:57:00 18° WNW visible
07 Nov ? 18:25:18 10° N 18:29:06 19° NE 18:30:56 16° ENE visible
07 Nov ? 20:06:42 10° NW 20:10:28 45° NW 20:10:28 45° NW visible
08 Nov ? 19:18:18 10° NNW 19:23:32 61° ENE 19:24:07 56° E visible
08 Nov ? 21:02:02 10° WNW 21:03:40 14° W 21:03:40 14° W visible
09 Nov ? 18:30:10 10° NNW 18:34:56 33° NE 18:37:58 17° ESE visible
09 Nov ? 20:12:31 10° NW 20:17:03 32° WSW 20:17:33 31° WSW visible
10 Nov ? 19:23:45 10° NW 19:28:54 67° WSW 19:31:46 24° SSE visible
